Location: Long Barn
(38.0930°N, 120.1344°W)
Time: 12:09:02
(UTC+00:00)

S3M - Pass Details

Date: 05 August 2024
Orbit: 949 x 1003 km, 83.0° (Epoch: 15 September)

Event Time Altitude Azimuth Distance (km) Brightness Sun altitude
Rises 12:14:36 0° 190° (S) 3,677 6.6 -10.1°
Reaches altitude 10° 12:17:08 10° 191° (SSW) 2,725 6.0 -9.7°
Maximum altitude 12:23:22 76° 277° (W) 1,004 4.0 -8.6°
Drops below altitude 10° 12:29:34 10° 3° (N) 2,704 6.8 -7.6°
Sets 12:32:04 0° 5° (N) 3,647 7.5 -7.1°
